User: anonymous   Login
Location: Carbonear
(47.7333°N, 53.2500°W)
Time: 17:24:13
(UTC+00:00)
Language:

CAS-6 - Orbit

View from above orbital plane
View from above orbital plane
View from above satellite
View from above satellite

Ground track
Ground track

The orbit data is extracted from the following two-line orbital elements,

1 44881U 19093C   22334.15157276  .00000507  00000-0  70505-4 0  9998
2 44881  97.8811  50.8924 0015237  12.2763 347.8823 14.81947145159316
Epoch (UTC): 30 November 2022 03:38:15
Eccentricity: 0.0015237
inclination: 97.8811°
perigee height: 612 km
apogee height: 634 km
right ascension of ascending node: 50.8924°
argument of perigee: 12.2763°
revolutions per day: 14.81947145
mean anomaly at epoch: 347.8823°
orbit number at epoch: 15931

The dashed part of the orbit path shows where the satellite is in the earth's shadow,  

DLR